Wind_Speed
19 18 16 15 15 14 12 9 8 7 6 4 3 2 2 1 3 3 5 6 6 9 15 19 22 22 20 20 18 17 9 8 13 19 20 18 15 12 14 19 19 15 12 10 8
21 20 18 17 17 16 14 12 11 10 9 8 7 4 3 2 2 4 4 6 7 9 11 12 12 13 14 18 6 14 15 8 9 14 16 14 14 15 20 18 17 17 15 11 7
23 23 22 21 19 18 17 15 13 12 11 11 10 9 6 3 4 4 5 7 8 10 14 18 17 10 18 25 14 4 15 13 6 11 11 11 18 23 20 22 18 19 19 16 10
25 25 24 24 23 22 20 18 17 16 14 13 13 12 10 5 3 6 6 8 9 12 14 18 17 14 13 11 13 5 15 16 10 11 13 13 13 14 17 18 19 17 19 18 13
25 27 27 26 26 25 24 23 21 19 18 16 15 14 12 8 9 8 8 9 10 13 15 19 21 12 18 15 6 3 9 14 11 9 12 14 17 19 15 16 19 17 17 17 14
26 26 25 25 27 28 27 26 24 23 22 20 18 16 15 11 10 11 10 12 13 13 17 18 23 14 16 14 5 14 13 13 17 6 7 16 13 10 16 17 17 17 13 15 16
27 27 26 27 26 24 24 25 26 26 24 22 20 18 16 12 14 13 13 13 13 12 15 18 20 18 21 18 10 11 3 4 16 8 13 13 12 10 12 16 16 18 13 13 16
23 25 27 27 26 26 26 25 23 23 23 23 21 19 19 13 15 14 13 14 14 11 12 17 16 18 20 18 19 7 3 11 15 5 11 13 9 9 18 12 12 16 15 12 16
23 22 22 23 25 27 27 25 24 23 23 22 21 20 21 16 16 15 13 14 14 13 12 13 13 11 12 16 17 7 11 18 14 16 10 17 15 14 12 13 13 16 16 13 14
22 22 23 23 22 22 23 24 24 24 23 22 22 22 23 22 18 16 18 18 14 14 14 15 15 13 12 15 15 10 17 18 24 11 5 15 22 23 14 10 10 13 16 18 15
17 19 21 21 23 24 22 20 20 19 19 21 17 20 17 16 17 23 22 20 18 15 15 18 15 11 12 15 13 6 11 16 21 7 7 15 10 17 19 10 8 8 8 13 15
13 14 15 17 17 20 21 20 21 20 21 22 21 23 20 16 19 23 24 23 20 16 17 19 13 12 14 17 16 7 14 13 28 10 15 20 18 16 21 18 27 17 11 5 12
9 10 10 11 12 14 17 17 18 18 17 15 16 19 20 20 20 18 22 24 21 19 18 18 15 15 13 10 15 16 7 3 23 15 23 20 4 24 31 19 12 23 25 14 2
7 7 7 8 7 6 9 10 11 12 12 10 12 15 18 21 25 23 19 22 21 18 18 17 16 15 8 8 20 14 11 9 22 26 26 14 17 20 23 23 26 32 26 13 1
7 7 8 9 8 7 8 8 8 9 9 5 9 11 16 23 24 23 18 20 19 18 19 15 16 15 19 22 25 15 20 22 23 22 27 14 18 17 21 29 25 27 40 6 5
5 5 5 6 7 7 5 6 7 7 9 3 5 7 10 13 16 18 16 20 19 18 16 13 13 15 14 20 23 19 20 22 30 23 20 9 16 21 22 29 27 20 7 8 7
7 7 7 6 6 6 7 6 6 2 6 1 1 2 4 7 10 9 12 16 15 12 9 10 7 6 9 11 16 17 16 18 19 16 9 8 13 19 24 23 27 40 15 6 1
10 9 8 7 6 5 6 10 10 16 3 14 1 2 4 7 8 8 7 13 14 16 17 7 3 8 17 14 16 16 14 14 11 8 7 14 19 24 24 24 30 31 22 7 3
12 9 8 7 7 6 7 12 14 18 15 12 3 3 1 8 5 6 6 9 12 11 7 10 4 9 19 13 11 11 15 7 13 14 19 12 18 20 24 20 27 36 19 17 11
15 12 11 9 7 7 8 10 13 7 7 11 11 8 8 3 3 7 5 6 11 13 18 15 13 6 14 9 10 13 10 15 12 13 12 14 13 19 26 24 22 24 28 15 6
18 16 14 12 10 10 11 12 14 8 13 13 18 15 15 7 15 6 2 3 5 4 12 21 22 11 14 8 9 6 11 17 16 16 17 10 17 24 25 23 17 8 16 24 9
19 18 17 15 14 12 13 15 10 8 12 15 17 21 21 8 15 4 1 13 14 21 14 20 25 17 4 8 15 17 8 15 22 16 19 11 25 30 21 29 20 16 19 1 11
20 20 20 19 18 16 17 16 12 12 13 16 20 18 26 21 13 9 14 16 19 22 18 16 13 15 4 3 11 16 6 13 11 11 11 9 22 26 30 17 21 30 22 5 10
21 23 23 21 19 18 18 17 14 14 13 17 22 27 29 26 26 19 11 17 23 25 21 16 19 18 7 7 9 3 7 6 11 18 13 13 19 18 19 21 24 10 19 13 14
23 21 19 23 24 21 19 18 15 16 16 17 17 22 26 31 29 30 15 14 18 17 11 14 19 25 20 15 11 14 13 12 8 7 18 17 23 24 21 22 22 22 18 20 21
22 19 21 23 21 18 18 18 16 16 17 18 17 20 22 31 33 36 33 18 12 19 7 13 20 30 28 18 11 13 16 14 13 20 16 26 14 19 29 26 24 24 28 15 7
25 25 23 21 21 20 21 19 19 19 21 18 21 23 26 35 37 36 32 34 27 14 10 9 19 23 25 20 22 23 14 12 22 20 18 18 18 15 26 30 31 18 19 11 11
Wind_Direction
233 235 237 236 235 233 236 239 245 250 263 276 309 3 24 68 125 152 151 159 146 139 138 139 132 143 139 77 32 358 25 342 3 29 18 30 31 28 46 30 36 30 31 30 26
234 235 236 237 237 239 243 247 247 251 258 268 276 292 321 315 187 178 170 173 170 163 134 141 116 135 127 94 80 344 338 340 327 26 8 30 41 27 40 44 37 34 24 16 12
234 236 236 237 239 240 242 244 247 251 257 265 269 274 281 292 252 215 193 184 186 173 150 139 140 125 101 101 98 326 308 341 357 355 1 10 27 26 27 35 28 27 25 19 10
239 238 238 239 241 242 244 246 249 252 255 260 265 268 273 285 245 243 232 187 194 185 178 147 132 154 117 93 98 40 324 334 15 356 7 14 45 41 26 25 24 25 24 22 23
242 242 241 241 243 245 246 248 249 253 257 259 262 265 267 263 257 257 221 205 195 191 191 163 160 142 119 80 80 191 299 306 334 353 18 16 12 22 34 36 26 23 27 24 30
242 244 245 245 245 246 248 250 251 253 255 257 259 261 263 259 246 248 236 207 196 201 198 188 182 207 145 118 100 295 265 304 311 357 350 19 33 13 16 36 39 24 26 29 32
243 243 244 246 247 248 248 250 251 251 252 255 256 256 258 260 244 242 224 209 204 201 199 204 200 210 165 146 137 243 293 239 293 347 316 2 19 18 14 32 42 31 17 30 39
243 243 244 244 245 246 248 250 251 250 249 249 251 252 252 249 245 231 222 207 202 203 200 212 219 209 198 180 182 154 219 240 290 344 357 355 345 352 3 21 28 31 21 28 40
245 243 243 243 243 244 246 247 248 249 250 250 249 246 247 238 240 235 216 204 202 207 210 218 227 216 209 185 168 152 236 253 216 211 207 352 335 314 351 9 18 34 27 25 30
242 244 244 243 242 242 243 243 246 248 250 251 251 249 248 245 242 230 220 213 211 215 223 228 217 207 208 202 166 195 235 247 267 186 27 327 324 302 338 357 22 37 20 22 13
240 242 243 244 244 238 239 241 243 245 246 247 250 248 246 242 229 227 222 218 218 221 222 231 231 216 210 210 164 240 305 343 341 108 182 298 304 295 325 338 328 1 7 7 16
237 240 238 239 244 237 238 240 243 245 250 252 251 256 253 242 232 227 223 223 224 227 227 231 230 218 218 220 186 198 258 302 291 312 326 301 324 311 311 324 344 327 300 335 353
235 226 226 230 235 237 239 242 244 243 243 245 243 247 247 235 238 236 227 225 224 226 228 230 227 217 214 222 204 186 188 243 313 317 278 294 357 303 302 329 6 310 304 237 307
223 218 219 225 229 232 227 224 230 230 230 231 246 251 254 243 241 235 229 225 221 223 230 229 225 231 207 285 290 224 164 234 265 263 267 303 302 295 312 321 317 286 304 290 63
223 220 225 225 225 222 210 218 221 224 239 200 260 269 261 240 233 228 217 221 220 221 227 225 222 196 206 213 235 232 199 231 241 244 245 265 273 289 291 297 277 305 321 301 246
199 194 199 206 212 209 210 214 212 231 248 251 280 290 274 245 227 217 217 217 214 221 228 224 243 244 238 236 247 251 249 240 234 250 242 301 259 265 273 287 301 294 310 243 221
208 195 193 181 185 196 193 181 175 197 302 263 348 333 249 206 209 211 215 212 216 211 205 209 232 265 278 263 255 272 256 254 244 251 270 17 317 279 282 289 301 317 281 134 126
225 211 215 205 189 189 177 171 157 85 359 277 144 94 117 162 175 157 171 189 185 190 195 174 217 325 291 263 255 251 247 247 246 255 285 293 298 303 311 298 298 303 286 249 245
215 209 208 209 201 192 187 192 205 163 197 240 260 123 135 100 71 148 183 188 186 193 200 148 260 247 277 280 242 243 247 237 230 230 256 253 294 303 311 291 302 299 267 223 243
219 218 217 220 219 207 208 220 227 274 192 230 130 25 44 14 257 283 212 220 219 204 180 163 152 311 289 311 297 246 237 209 214 269 301 255 289 301 292 301 294 282 284 173 316
228 225 227 227 229 219 216 228 238 216 194 190 183 153 139 241 297 260 304 249 158 232 237 193 193 180 248 332 11 293 234 241 215 219 258 253 304 298 293 301 318 297 284 294 302
228 229 228 229 229 226 229 243 252 237 211 205 210 155 157 150 254 147 213 244 249 220 229 209 222 213 284 355 304 324 289 214 230 232 234 245 305 284 284 307 306 308 290 158 296
231 226 222 227 228 232 237 239 238 238 217 203 199 202 173 162 180 158 245 242 251 264 251 233 199 123 74 312 268 287 329 212 228 267 199 259 293 301 303 314 301 298 294 253 281
230 226 226 224 221 227 238 244 238 236 224 222 203 204 193 174 170 179 239 250 251 261 259 244 187 163 208 250 221 306 353 323 237 219 217 241 283 285 299 311 294 276 278 63 285
231 233 230 229 222 225 230 236 243 235 230 226 221 224 207 196 187 183 180 277 290 288 264 217 202 181 202 196 190 238 244 248 239 234 224 244 278 297 299 293 310 319 297 287 263
232 231 224 229 228 235 234 234 239 239 232 229 217 218 213 209 208 198 193 202 267 278 174 218 205 206 202 199 212 227 233 253 256 234 223 222 249 297 281 296 285 282 283 260 242
223 222 224 222 228 231 230 228 229 230 237 227 217 215 215 215 217 215 214 209 216 236 258 207 190 218 208 205 231 239 224 253 243 243 243 219 233 266 268 269 278 269 253 257 291
Height
5904 5905 5907 5909 5910 5912 5914 5915 5916 5917 5917 5918 5919 5919 5919 5919 5920 5920 5920 5920 5921 5920 5922 5922 5921 5922 5922 5919 5924 5930 5928 5924 5923 5919 5918 5918 5916 5914 5909 5906 5904 5905 5903 5902 5901
5900 5902 5904 5906 5908 5909 5911 5912 5914 5915 5916 5916 5917 5918 5918 5919 5919 5919 5920 5919 5920 5920 5922 5923 5926 5927 5921 5918 5923 5931 5928 5928 5925 5923 5921 5920 5919 5914 5915 5911 5910 5908 5906 5903 5902
5897 5899 5901 5903 5904 5907 5908 5910 5911 5913 5914 5914 5915 5916 5917 5918 5918 5918 5917 5918 5919 5920 5920 5922 5925 5929 5924 5922 5929 5933 5929 5929 5930 5927 5924 5922 5918 5914 5914 5912 5911 5909 5906 5904 5902
5892 5895 5897 5899 5901 5903 5905 5907 5908 5910 5911 5912 5913 5913 5914 5916 5918 5916 5917 5917 5918 5918 5919 5921 5923 5926 5920 5925 5927 5932 5931 5927 5930 5929 5927 5924 5922 5920 5917 5916 5913 5911 5908 5906 5903
5887 5890 5892 5894 5897 5899 5901 5903 5905 5906 5908 5909 5910 5911 5912 5914 5914 5914 5915 5916 5916 5917 5917 5919 5921 5923 5919 5924 5927 5931 5931 5928 5931 5929 5927 5926 5925 5924 5920 5916 5914 5913 5911 5908 5906
5883 5885 5887 5889 5892 5894 5896 5898 5900 5902 5903 5905 5906 5908 5909 5911 5911 5912 5913 5914 5915 5916 5916 5917 5918 5920 5918 5922 5926 5930 5933 5930 5927 5928 5926 5926 5927 5926 5925 5920 5915 5915 5913 5911 5908
5877 5880 5882 5884 5887 5889 5891 5893 5895 5897 5899 5901 5902 5904 5905 5907 5908 5909 5910 5912 5913 5915 5916 5915 5916 5919 5918 5919 5923 5928 5931 5931 5928 5926 5928 5925 5927 5927 5925 5921 5917 5917 5916 5913 5910
5872 5874 5876 5879 5881 5883 5885 5888 5890 5891 5893 5896 5898 5900 5901 5904 5904 5906 5908 5909 5911 5913 5914 5914 5915 5915 5917 5917 5920 5925 5929 5928 5927 5928 5927 5927 5929 5927 5926 5923 5921 5918 5917 5915 5911
5867 5869 5871 5874 5876 5878 5880 5883 5884 5887 5889 5891 5894 5896 5897 5900 5901 5903 5906 5907 5909 5910 5912 5913 5914 5916 5916 5918 5920 5921 5925 5922 5917 5917 5922 5928 5930 5927 5928 5927 5924 5919 5918 5916 5913
5862 5864 5866 5869 5871 5873 5875 5877 5880 5882 5884 5886 5888 5892 5894 5896 5898 5900 5902 5904 5906 5908 5910 5911 5912 5914 5916 5916 5916 5918 5921 5923 5917 5916 5921 5927 5928 5926 5927 5927 5924 5920 5920 5918 5916
5857 5859 5861 5864 5866 5868 5872 5874 5877 5879 5880 5881 5885 5885 5888 5891 5893 5894 5898 5900 5903 5905 5907 5907 5910 5913 5914 5915 5914 5916 5917 5918 5921 5914 5920 5925 5927 5926 5925 5924 5922 5920 5919 5920 5919
5854 5856 5858 5859 5861 5863 5866 5869 5871 5874 5876 5877 5879 5880 5883 5886 5887 5890 5893 5897 5899 5902 5903 5905 5908 5910 5912 5913 5912 5916 5920 5917 5918 5921 5922 5926 5925 5920 5919 5919 5920 5921 5923 5920 5920
5852 5853 5855 5856 5858 5860 5862 5865 5866 5869 5870 5873 5874 5876 5878 5881 5883 5886 5889 5891 5895 5898 5900 5902 5905 5906 5908 5911 5912 5914 5918 5921 5915 5913 5922 5924 5923 5913 5913 5916 5921 5917 5919 5917 5916
5850 5852 5853 5854 5857 5858 5859 5861 5863 5865 5867 5871 5872 5873 5874 5876 5877 5881 5884 5888 5891 5895 5897 5899 5900 5902 5903 5907 5911 5913 5916 5918 5920 5920 5919 5921 5921 5921 5916 5916 5917 5907 5911 5910 5909
5849 5850 5851 5853 5854 5856 5857 5859 5861 5863 5865 5869 5867 5868 5868 5869 5871 5875 5881 5883 5887 5891 5894 5897 5898 5899 5901 5904 5908 5908 5910 5911 5912 5912 5914 5917 5917 5917 5918 5916 5915 5912 5912 5914 5911
5849 5849 5850 5851 5853 5855 5856 5858 5860 5863 5861 5865 5865 5864 5864 5864 5867 5872 5876 5880 5884 5887 5890 5893 5895 5896 5898 5901 5903 5903 5905 5906 5908 5909 5909 5913 5915 5914 5914 5913 5913 5914 5911 5911 5912
5848 5848 5849 5851 5852 5853 5855 5858 5860 5860 5862 5862 5863 5862 5862 5863 5866 5870 5873 5877 5882 5886 5889 5891 5894 5896 5897 5898 5900 5900 5902 5903 5905 5906 5908 5911 5912 5911 5912 5911 5910 5913 5912 5906 5906
5846 5847 5848 5850 5851 5852 5854 5857 5859 5858 5864 5860 5863 5863 5863 5864 5867 5870 5872 5876 5880 5882 5884 5888 5892 5894 5895 5896 5896 5897 5898 5899 5900 5902 5905 5908 5906 5905 5906 5906 5906 5902 5903 5898 5898
5844 5846 5847 5849 5850 5851 5854 5854 5855 5855 5859 5860 5860 5863 5863 5864 5867 5870 5873 5876 5878 5881 5885 5886 5888 5889 5891 5891 5893 5894 5894 5897 5898 5900 5900 5904 5904 5902 5903 5904 5900 5890 5889 5889 5893
5840 5843 5845 5846 5848 5850 5852 5853 5853 5855 5856 5859 5860 5864 5865 5867 5870 5870 5872 5874 5876 5879 5882 5884 5885 5888 5888 5890 5890 5891 5894 5892 5895 5898 5899 5901 5902 5902 5899 5900 5894 5889 5884 5866 5884
5837 5840 5842 5844 5846 5848 5849 5850 5850 5853 5854 5856 5857 5860 5865 5872 5871 5871 5872 5874 5875 5877 5879 5882 5884 5887 5887 5889 5889 5889 5890 5890 5893 5895 5895 5897 5899 5896 5896 5898 5893 5892 5888 5883 5893
5833 5837 5839 5841 5843 5844 5846 5846 5849 5851 5852 5854 5859 5860 5862 5866 5870 5871 5872 5874 5874 5874 5874 5878 5882 5882 5885 5886 5887 5888 5888 5889 5891 5895 5894 5897 5895 5890 5891 5891 5889 5882 5883 5886 5892
5828 5831 5833 5836 5838 5841 5842 5842 5845 5847 5849 5852 5856 5859 5859 5863 5867 5872 5870 5871 5872 5873 5873 5875 5880 5884 5885 5886 5887 5887 5885 5886 5888 5890 5893 5895 5891 5886 5885 5886 5885 5882 5883 5882 5882
5822 5824 5828 5831 5834 5836 5838 5840 5841 5843 5846 5847 5850 5852 5857 5858 5862 5867 5866 5867 5868 5869 5870 5873 5877 5877 5881 5882 5885 5884 5884 5884 5885 5887 5890 5889 5886 5886 5884 5884 5882 5883 5880 5860 5881
5816 5821 5826 5826 5828 5830 5834 5836 5837 5839 5841 5843 5847 5849 5854 5855 5858 5862 5863 5860 5860 5863 5864 5868 5873 5873 5874 5878 5880 5882 5882 5883 5883 5884 5885 5888 5883 5883 5880 5880 5880 5880 5881 5883 5884
5814 5818 5819 5821 5825 5827 5830 5832 5834 5835 5837 5839 5842 5844 5849 5853 5851 5853 5857 5858 5859 5858 5862 5864 5867 5870 5869 5874 5875 5875 5877 5878 5878 5875 5878 5879 5881 5877 5873 5876 5877 5877 5876 5878 5881
5805 5809 5812 5816 5819 5822 5824 5827 5828 5829 5831 5834 5836 5838 5840 5838 5842 5846 5850 5853 5856 5855 5857 5860 5862 5861 5865 5867 5867 5870 5873 5872 5872 5872 5874 5875 5874 5873 5871 5873 5872 5871 5874 5876 5877